| time (UTC) | temp F | wind direction | speed knots | gust knots | rain 1hr in | rain 24hr in | rain mn in | humidity % | barometer mb |
| 20260507120307 | 60 | 74 | 4.3 | 11.3 | 0.00 | 0.00 | 0.00 | 57 | 1014.8 |
| 20260507110310 | 58 | 110 | 3.5 | 8.7 | 0.00 | 0.00 | 0.00 | 58 | 1015.0 |
| 20260507103304 | 57 | 64 | 3.5 | 7.0 | 0.00 | 0.00 | 0.00 | 61 | 1015.0 |
| 20260507100308 | 58 | 126 | 2.6 | 6.1 | 0.00 | 0.00 | 0.00 | 61 | 1015.2 |
| 20260507093304 | 56 | 196 | 3.5 | 8.7 | 0.00 | 0.00 | 0.00 | 64 | 1015.2 |
| 20260507090310 | 56 | 97 | 3.5 | 7.0 | 0.00 | 0.00 | 0.00 | 65 | 1015.0 |
| 20260507080312 | 53 | 172 | 3.5 | 8.7 | 0.00 | 0.00 | 0.00 | 73 | 1015.2 |
| 20260507073303 | 52 | 143 | 3.5 | 8.7 | 0.00 | 0.00 | 0.00 | 79 | 1015.1 |
| 20260507070303 | 49 | 84 | 0.0 | 5.2 | 0.00 | 0.00 | 0.00 | 86 | 1015.0 |
| 20260507063308 | 46 | 68 | 0.0 | 2.6 | 0.00 | 0.00 | 0.00 | 89 | 1014.9 |
| 20260507060303 | 44 | 39 | 0.0 | 1.7 | 0.00 | 0.00 | 0.00 | 89 | 1014.9 |
| 20260507053305 | 43 | 46 | 0.0 | 1.7 | 0.00 | 0.00 | 0.00 | 90 | 1014.7 |
| 20260507043300 | 42 | 22 | 0.0 | 0.0 | 0.00 | 0.00 | 0.00 | 88 | 1014.3 |
| 20260507040301 | 43 | 94 | 0.0 | 0.0 | 0.00 | 0.00 | 0.00 | 88 | 1014.2 |
| 20260507033305 | 44 | 98 | 0.0 | 0.0 | 0.00 | 0.00 | 0.00 | 87 | 1014.0 |
| 20260507030302 | 45 | 94 | 0.0 | 0.0 | 0.00 | 0.00 | 0.00 | 87 | 1013.9 |
| 20260507023258 | 46 | 97 | 0.0 | 0.0 | 0.00 | 0.00 | 0.00 | 86 | 1013.9 |
| 20260507020259 | 47 | 88 | 0.0 | 0.0 | 0.00 | 0.00 | 0.00 | 86 | 1013.9 |
| 20260507013258 | 47 | 39 | 0.0 | 0.0 | 0.00 | 0.00 | 0.00 | 86 | 1014.0 |
| 20260507010258 | 47 | 64 | 0.0 | 0.0 | 0.00 | 0.00 | 0.00 | 86 | 1014.2 |
| 20260507003304 | 47 | 38 | 0.0 | 0.0 | 0.00 | 0.00 | 0.00 | 86 | 1014.0 |
| 20260506233258 | 48 | 48 | 3.5 | 7.8 | 0.00 | 0.00 | 0.00 | 87 | 1014.0 |
| 20260506230305 | 48 | 35 | 1.7 | 5.2 | 0.00 | 0.00 | 0.00 | 86 | 1014.1 |
| 20260506223256 | 48 | 55 | 2.6 | 5.2 | 0.00 | 0.00 | 0.00 | 86 | 1013.9 |
| 20260506220256 | 48 | 45 | 2.6 | 7.0 | 0.00 | 0.00 | 0.00 | 85 | 1013.8 |
| 20260506213254 | 48 | 41 | 2.6 | 10.4 | 0.00 | 0.00 | 0.00 | 85 | 1013.7 |
| 20260506203255 | 48 | 37 | 4.3 | 12.2 | 0.00 | 0.00 | 0.00 | 84 | 1013.3 |
| 20260506200255 | 48 | 39 | 6.1 | 13.0 | 0.00 | 0.00 | 0.00 | 83 | 1013.2 |
| 20260506190258 | 49 | 37 | 7.0 | 14.8 | 0.00 | 0.00 | 0.00 | 81 | 1012.9 |
| 20260506183251 | 50 | 5 | 6.1 | 12.2 | 0.00 | 0.00 | 0.00 | 81 | 1012.6 |
| 20260506180300 | 51 | 342 | 6.1 | 12.2 | 0.00 | 0.00 | 0.00 | 80 | 1012.3 |
| 20260506173252 | 52 | 16 | 7.0 | 15.6 | 0.00 | 0.00 | 0.00 | 79 | 1012.1 |
| 20260506170256 | 52 | 5 | 7.8 | 15.6 | 0.00 | 0.00 | 0.00 | 79 | 1012.1 |
| 20260506160253 | 56 | 26 | 7.0 | 13.9 | 0.00 | 0.00 | 0.00 | 70 | 1012.0 |
| 20260506153240 | 55 | 0 | 6.1 | 13.9 | 0.00 | 0.00 | 0.00 | 71 | 1012.1 |
| 20260506150246 | 55 | 63 | 7.0 | 12.2 | 0.00 | 0.00 | 0.00 | 66 | 1012.0 |
| 20260506143241 | 55 | 57 | 6.1 | 12.2 | 0.00 | 0.00 | 0.00 | 62 | 1011.8 |
| 20260506140248 | 56 | 9 | 7.0 | 18.2 | 0.00 | 0.00 | 0.00 | 65 | 1011.7 |
| 20260506133240 | 57 | 331 | 7.0 | 14.8 | 0.00 | 0.00 | 0.00 | 59 | 1011.9 |
| 20260506123243 | 57 | 20 | 6.1 | 14.8 | 0.00 | 0.00 | 0.00 | 57 | 1011.8 |